星链-36383(STARLINK-36383)

导读

STARLINK-36383是美国SpaceX公司于2026年2月20日发射的Starlink星链互联网星座卫星,部署于近地轨道,属于星链大规模星座组网计划的组成部分。作为全球低轨卫星互联网项目的一员,它将与其他星链卫星协同,为全球偏远、欠发达地区提供高速低延迟宽带互联网接入服务,填补地面网络覆盖盲区,助力全球互联互通。

Basic Information
目录编号:
67870
目录名称:
STARLINK-36770
国际标识:
2026-034W
轨道中心:
EARTH
卫星名称:
星链-36383
卫星全名:
星链-36383(STARLINK-36383)
卫星状态:
在轨 (已飞行196 天)
发射日期:
2026-02-20 UTC
国别 :
美国 (US)
星等 :
--
Orbit Information
数据来源 国际轨道数据
星历时间: 2026-09-03T22:50:11+0800
15小时前
查看轨道信息
半长轴: 6840.861km
偏心率: 0.0001397
轨道倾角: 53.161°
近地点辐角 64.476°
升交点赤经 96.632°
平近点角 295.639°
近地点: 461.768km
远地点: 463.68km
周期: 93.848分钟
每日圈数: 15.343933
Detailed Information
固有亮度:
5
最大亮度:
2.5
卫星平台:
Starlink V1.0
覆盖范围:
全球
运营商:
太空探索技术公司
运营商所在国:
美国
制造商(研发单位):
太空探索技术公司
制造商所在国:
美国
使用方式:
暂无
Satellite Introduction
Starlink 计划是 SpaceX 推出的全球卫星互联网项目,通过发射低轨道卫星,为全球尤其是偏远地区提供高速、低延迟的互联网服务。自 2019 年起,Starlink 已部署数千颗卫星,旨在缩小全球数字鸿沟,推动互联网普及。该项目还为军事、航空等行业提供通信支持,带来广泛经济效益。
2D Orbit Map
3D Orbit Map
Orbit Altitude Analysis Chart
Orbit Inclination Analysis Chart
Orbit Comprehensive Analysis Chart
View Comprehensive Chart
Conjunction Data List
Event ID Objects TCA Miss Dist (km) Collision Risk Probability Collision Risk Index (CRI) Action
CDM_260905-000106-473006-787021
2026-09-05T
00:01:16+0000
0.952 km
远距离
9.682366E-6 低风险 0.55
CDM_260829-201505-702306-787022
OBJECT V (57023)
2026-08-29T
20:15:26+0000
2.414 km
极远距离
1.758538E-6 低风险 0.4
CDM_260905-120505-407006-787021
2026-09-05T
12:05:50+0000
2.566 km
极远距离
1.485791E-6 低风险 0.38
CDM_260904-231406-473006-787021
2026-09-04T
23:14:22+0000
2.558 km
极远距离
6.365663E-7 极低风险 0.31